Weather History for Scarborough, Trinidad And Tobago

Change the Weather History Date:

Tuesday, March 5, 2013

  Actual Average Record
Temperature  
Mean Temperature 80 °F -  
Max Temperature 86 °F 84 °F 87 °F (1998)
Min Temperature 75 °F 73 °F 73 °F (1999)
Cooling Degree Days 16    
Growing Degree Days 30 (Base 50)    
Moisture  
Dew Point 71 °F    
Average Humidity 72    
Maximum Humidity 89    
Minimum Humidity 58    
Precipitation  
Precipitation 0.00 in - - ()
Sea Level Pressure  
Sea Level Pressure 29.98 in    
Wind  
Wind Speed 5 mph ()    
Max Wind Speed 17 mph    
Max Gust Speed -    
Visibility 6.2 miles    
Events      
Averages and records for this station are not official NWS values.
T = Trace of Precipitation, MM = Missing Value Source: Averaged Metar Reports

Daily Weather History Graph

Daily Weather History Graph

Search for Another Location

Airport:

Trip Planner

Search our weather history database for the weather conditions in past years. The results will help you decide how hot, cold, wet, or windy it might be!

Date:

Astronomy

Mar. 05, 2013 Rise Set
Actual Time 6:16 AM AST 6:13 PM AST
Civil Twilight 5:54 AM AST 6:34 PM AST
Nautical Twilight 5:30 AM AST 6:59 PM AST
Astronomical Twilight 5:05 AM AST 7:23 PM AST
Moon 12:39 AM AST (3/5) 12:32 PM AST (3/5)
Length of Visible Light 12h 39m
Length of Day
11h 57m
Last Quarter, 41% of the Moon is Illuminated
Mar 5
Last Quarter
Mar 11
New
Mar 19
First Quarter
Mar 27
Full
Apr 3
Last Quarter

Hourly Weather History & Observations

Time (AST) Temp. Heat Index Dew Point Humidity Pressure Visibility Wind Dir Wind Speed Gust Speed Precip Events Conditions
12:00 AM 78.8 °F - 71.6 °F 78% 29.98 in 6.2 mi ENE 3.5 mph - N/A   Partly Cloudy
1:00 AM 77.0 °F - 71.6 °F 83% 29.95 in 6.2 mi Calm Calm - N/A   Partly Cloudy
2:00 AM 78.8 °F - 71.6 °F 78% 29.95 in 6.2 mi Calm Calm - N/A   Partly Cloudy
3:00 AM 75.2 °F - 71.6 °F 89% 29.95 in 6.2 mi Calm Calm - N/A   Partly Cloudy
4:00 AM 75.2 °F - 69.8 °F 83% 29.95 in 6.2 mi Calm Calm - N/A   Partly Cloudy
5:00 AM 75.2 °F - 69.8 °F 83% 29.95 in 6.2 mi Calm Calm - N/A   Partly Cloudy
6:00 AM 75.2 °F - 69.8 °F 83% 29.95 in 6.2 mi ENE 3.5 mph - N/A   Scattered Clouds
7:00 AM 77.0 °F - 69.8 °F 78% 29.98 in 6.2 mi East 9.2 mph - N/A   Mostly Cloudy
8:00 AM 80.6 °F 83.9 °F 69.8 °F 70% 30.01 in 6.2 mi East 5.8 mph - N/A   Mostly Cloudy
9:00 AM 84.2 °F 88.4 °F 69.8 °F 62% 30.01 in 6.2 mi East 11.5 mph - N/A   Mostly Cloudy
10:00 AM 86.0 °F 90.4 °F 69.8 °F 58% 30.04 in 6.2 mi East 15.0 mph - N/A   Scattered Clouds
11:00 AM 86.0 °F 90.4 °F 69.8 °F 58% 30.04 in 6.2 mi East 17.3 mph - N/A   Partly Cloudy
12:00 PM 84.2 °F 89.6 °F 71.6 °F 66% 30.01 in 6.2 mi East 12.7 mph - N/A   Scattered Clouds
1:00 PM 86.0 °F 91.8 °F 71.6 °F 62% 29.98 in 6.2 mi East 13.8 mph - N/A   Partly Cloudy
2:00 PM 86.0 °F 91.8 °F 71.6 °F 62% 29.95 in 6.2 mi East 13.8 mph - N/A   Mostly Cloudy
3:00 PM 86.0 °F 90.4 °F 69.8 °F 58% 29.95 in 6.2 mi East 13.8 mph - N/A   Scattered Clouds
4:00 PM 86.0 °F 90.4 °F 69.8 °F 58% 29.92 in 6.2 mi East 15.0 mph - N/A   Mostly Cloudy
5:00 PM 84.2 °F 89.6 °F 71.6 °F 66% 29.95 in 6.2 mi East 13.8 mph - N/A   Mostly Cloudy
6:00 PM 80.6 °F 83.9 °F 69.8 °F 70% 29.95 in 6.2 mi East 8.1 mph - N/A   Mostly Cloudy
7:00 PM 80.6 °F 83.9 °F 69.8 °F 70% 29.98 in 6.2 mi Calm Calm - N/A   Scattered Clouds
8:00 PM 80.6 °F 85.4 °F 73.4 °F 79% 29.98 in 6.2 mi Calm Calm - N/A   Scattered Clouds
9:00 PM 78.8 °F - 73.4 °F 83% 30.01 in 6.2 mi Calm Calm - N/A   Partly Cloudy
10:00 PM 78.8 °F - 71.6 °F 78% 30.01 in 6.2 mi NE 4.6 mph - N/A   Partly Cloudy
11:00 PM 77.0 °F - 71.6 °F 83% 30.01 in - Calm Calm - N/A   Clear